Year,Month,Day,Hour,Minute,Value (Times are PST for temperature in C)
2011,08,16,00,00,13.60
2011,08,16,00,01,13.60
2011,08,16,00,02,13.60
2011,08,16,00,03,13.50
2011,08,16,00,04,13.50
2011,08,16,00,05,13.40
2011,08,16,00,06,13.40
2011,08,16,00,07,13.40
2011,08,16,00,08,13.30
2011,08,16,00,09,13.30
2011,08,16,00,10,13.30
2011,08,16,00,11,13.30
2011,08,16,00,12,13.30
2011,08,16,00,13,13.20
2011,08,16,00,14,13.20
2011,08,16,00,15,13.20
2011,08,16,00,16,13.20
2011,08,16,00,17,13.20
2011,08,16,00,18,13.20
2011,08,16,00,19,13.10
2011,08,16,00,20,13.10
2011,08,16,00,21,13.10
2011,08,16,00,22,13.10
2011,08,16,00,23,13.10
2011,08,16,00,24,13.10
2011,08,16,00,25,13.10
2011,08,16,00,26,13.00
2011,08,16,00,27,13.00
2011,08,16,00,28,13.00
2011,08,16,00,29,13.00
2011,08,16,00,30,13.00
2011,08,16,00,31,12.90
2011,08,16,00,32,12.90
2011,08,16,00,33,12.90
2011,08,16,00,34,12.90
2011,08,16,00,35,12.90
2011,08,16,00,36,12.90
2011,08,16,00,37,12.80
2011,08,16,00,38,12.80
2011,08,16,00,39,12.80
2011,08,16,00,40,12.80
2011,08,16,00,41,12.80
2011,08,16,00,42,12.80
2011,08,16,00,43,12.80
2011,08,16,00,44,12.80
2011,08,16,00,45,12.80
2011,08,16,00,46,12.80
2011,08,16,00,47,12.80
2011,08,16,00,48,12.80
2011,08,16,00,49,12.80
2011,08,16,00,50,12.80
2011,08,16,00,51,12.80
2011,08,16,00,52,12.80
2011,08,16,00,53,12.80
2011,08,16,00,54,12.80
2011,08,16,00,55,12.80
2011,08,16,00,56,12.80
2011,08,16,00,57,12.80
2011,08,16,00,58,12.70
2011,08,16,00,59,12.70
2011,08,16,01,00,12.70
2011,08,16,01,01,12.70
2011,08,16,01,02,12.70
2011,08,16,01,03,12.70
2011,08,16,01,04,12.70
2011,08,16,01,05,12.70
2011,08,16,01,06,12.70
2011,08,16,01,07,12.70
2011,08,16,01,08,12.70
2011,08,16,01,09,12.70
2011,08,16,01,10,12.70
2011,08,16,01,11,12.70
2011,08,16,01,12,12.70
2011,08,16,01,13,12.70
2011,08,16,01,14,12.70
2011,08,16,01,15,12.60
2011,08,16,01,16,12.60
2011,08,16,01,17,12.60
2011,08,16,01,18,12.60
2011,08,16,01,19,12.50
2011,08,16,01,20,12.50
2011,08,16,01,21,12.40
2011,08,16,01,22,12.40
2011,08,16,01,23,12.40
2011,08,16,01,24,12.30
2011,08,16,01,25,12.30
2011,08,16,01,26,12.20
2011,08,16,01,27,12.10
2011,08,16,01,28,12.10
2011,08,16,01,29,12.00
2011,08,16,01,30,12.00
2011,08,16,01,31,11.90
2011,08,16,01,32,11.80
2011,08,16,01,33,11.80
2011,08,16,01,34,11.70
2011,08,16,01,35,11.70
2011,08,16,01,36,11.60
2011,08,16,01,37,11.60
2011,08,16,01,38,11.50
2011,08,16,01,39,11.50
2011,08,16,01,40,11.40
2011,08,16,01,41,11.40
2011,08,16,01,42,11.40
2011,08,16,01,43,11.30
2011,08,16,01,44,11.30
2011,08,16,01,45,11.30
2011,08,16,01,46,11.20
2011,08,16,01,47,11.20
2011,08,16,01,48,11.20
2011,08,16,01,49,11.10
2011,08,16,01,50,11.10
2011,08,16,01,51,11.10
2011,08,16,01,52,11.00
2011,08,16,01,53,11.00
2011,08,16,01,54,10.90
2011,08,16,01,55,10.90
2011,08,16,01,56,10.90
2011,08,16,01,57,10.90
2011,08,16,01,58,10.90
2011,08,16,01,59,10.90
2011,08,16,02,00,10.90
2011,08,16,02,01,10.90
2011,08,16,02,02,10.90
2011,08,16,02,03,10.90
2011,08,16,02,04,10.90
2011,08,16,02,05,10.90
2011,08,16,02,06,10.90
2011,08,16,02,07,10.90
2011,08,16,02,08,10.90
2011,08,16,02,09,11.00
2011,08,16,02,10,11.00
2011,08,16,02,11,11.10
2011,08,16,02,12,11.10
2011,08,16,02,13,11.20
2011,08,16,02,14,11.20
2011,08,16,02,15,11.30
2011,08,16,02,16,11.30
2011,08,16,02,17,11.30
2011,08,16,02,18,11.40
2011,08,16,02,19,11.40
2011,08,16,02,20,11.40
2011,08,16,02,21,11.40
2011,08,16,02,22,11.40
2011,08,16,02,23,11.40
2011,08,16,02,24,11.40
2011,08,16,02,25,11.40
2011,08,16,02,26,11.30
2011,08,16,02,27,11.30
2011,08,16,02,28,11.30
2011,08,16,02,29,11.30
2011,08,16,02,30,11.30
2011,08,16,02,31,11.20
2011,08,16,02,32,11.20
2011,08,16,02,33,11.20
2011,08,16,02,34,11.20
2011,08,16,02,35,11.10
2011,08,16,02,36,11.10
2011,08,16,02,37,11.10
2011,08,16,02,38,11.00
2011,08,16,02,39,11.00
2011,08,16,02,40,10.90
2011,08,16,02,41,10.90
2011,08,16,02,42,10.90
2011,08,16,02,43,10.80
2011,08,16,02,44,10.80
2011,08,16,02,45,10.70
2011,08,16,02,46,10.70
2011,08,16,02,47,10.60
2011,08,16,02,48,10.60
2011,08,16,02,49,10.50
2011,08,16,02,50,10.50
2011,08,16,02,51,10.40
2011,08,16,02,52,10.40
2011,08,16,02,53,10.40
2011,08,16,02,54,10.30
2011,08,16,02,55,10.30
2011,08,16,02,56,10.30
2011,08,16,02,57,10.20
2011,08,16,02,58,10.20
2011,08,16,02,59,10.20
2011,08,16,03,00,10.20
2011,08,16,03,01,10.10
2011,08,16,03,02,10.10
2011,08,16,03,06,10.00
2011,08,16,03,07,10.00
2011,08,16,03,08,9.90
2011,08,16,03,09,9.90
2011,08,16,03,10,10.00
2011,08,16,03,11,10.00
2011,08,16,03,12,10.10
2011,08,16,03,13,10.10
2011,08,16,03,14,10.20
2011,08,16,03,15,10.30
2011,08,16,03,16,10.30
2011,08,16,03,17,10.40
2011,08,16,03,18,10.50
2011,08,16,03,19,10.50
2011,08,16,03,20,10.60
2011,08,16,03,21,10.60
2011,08,16,03,22,10.60
2011,08,16,03,23,10.60
2011,08,16,03,24,10.60
2011,08,16,03,25,10.60
2011,08,16,03,26,10.60
2011,08,16,03,27,10.60
2011,08,16,03,28,10.50
2011,08,16,03,29,10.50
2011,08,16,03,30,10.50
2011,08,16,03,31,10.40
2011,08,16,03,32,10.40
2011,08,16,03,33,10.30
2011,08,16,03,34,10.30
2011,08,16,03,35,10.20
2011,08,16,03,36,10.20
2011,08,16,03,37,10.10
2011,08,16,03,38,10.10
2011,08,16,03,39,10.00
2011,08,16,03,40,10.00
2011,08,16,03,41,9.90
2011,08,16,03,42,9.90
2011,08,16,03,43,9.90
2011,08,16,03,44,9.80
2011,08,16,03,45,9.80
2011,08,16,03,46,9.80
2011,08,16,03,47,9.90
2011,08,16,03,48,9.90
2011,08,16,03,49,10.00
2011,08,16,03,50,10.00
2011,08,16,03,51,10.00
2011,08,16,03,52,10.10
2011,08,16,03,53,10.10
2011,08,16,03,54,10.10
2011,08,16,03,55,10.10
2011,08,16,03,56,10.10
2011,08,16,03,57,10.10
2011,08,16,03,58,10.00
2011,08,16,03,59,10.10
2011,08,16,04,00,10.10
2011,08,16,04,01,10.10
2011,08,16,04,02,10.10
2011,08,16,04,03,10.10
2011,08,16,04,04,10.10
2011,08,16,04,05,10.20
2011,08,16,04,06,10.20
2011,08,16,04,07,10.20
2011,08,16,04,08,10.20
2011,08,16,04,09,10.20
2011,08,16,04,10,10.20
2011,08,16,04,11,10.20
2011,08,16,04,12,10.20
2011,08,16,04,13,10.20
2011,08,16,04,14,10.20
2011,08,16,04,15,10.10
2011,08,16,04,16,10.10
2011,08,16,04,17,10.10
2011,08,16,04,18,10.10
2011,08,16,04,19,10.10
2011,08,16,04,20,10.10
2011,08,16,04,21,10.10
2011,08,16,04,22,10.10
2011,08,16,04,23,10.10
2011,08,16,04,24,10.10
2011,08,16,04,25,10.10
2011,08,16,04,26,10.00
2011,08,16,04,27,10.00
2011,08,16,04,28,10.00
2011,08,16,04,29,9.90
2011,08,16,04,30,9.90
2011,08,16,04,31,9.90
2011,08,16,04,32,9.90
2011,08,16,04,33,9.80
2011,08,16,04,34,9.80
2011,08,16,04,35,9.80
2011,08,16,04,36,9.80
2011,08,16,04,37,9.70
2011,08,16,04,38,9.70
2011,08,16,04,39,9.60
2011,08,16,04,40,9.60
2011,08,16,04,41,9.60
2011,08,16,04,42,9.60
2011,08,16,04,43,9.50
2011,08,16,04,44,9.50
2011,08,16,04,45,9.50
2011,08,16,04,46,9.50
2011,08,16,04,47,9.40
2011,08,16,04,48,9.40
2011,08,16,04,49,9.40
2011,08,16,04,50,9.30
2011,08,16,04,51,9.30
2011,08,16,04,52,9.30
2011,08,16,04,53,9.30
2011,08,16,04,54,9.30
2011,08,16,04,55,9.30
2011,08,16,04,56,9.20
2011,08,16,04,57,9.20
2011,08,16,04,58,9.20
2011,08,16,04,59,9.20
2011,08,16,05,00,9.20
2011,08,16,05,01,9.20
2011,08,16,05,02,9.20
2011,08,16,05,03,9.20
2011,08,16,05,04,9.20
2011,08,16,05,05,9.20
2011,08,16,05,06,9.20
2011,08,16,05,07,9.20
2011,08,16,05,08,9.20
2011,08,16,05,09,9.20
2011,08,16,05,10,9.20
2011,08,16,05,11,9.20
2011,08,16,05,12,9.20
2011,08,16,05,13,9.20
2011,08,16,05,14,9.10
2011,08,16,05,15,9.10
2011,08,16,05,16,9.10
2011,08,16,05,17,9.10
2011,08,16,05,18,9.10
2011,08,16,05,19,9.10
2011,08,16,05,20,9.10
2011,08,16,05,21,9.00
2011,08,16,05,22,9.00
2011,08,16,05,23,9.00
2011,08,16,05,24,9.00
2011,08,16,05,25,8.90
2011,08,16,05,26,8.90
2011,08,16,05,27,8.90
2011,08,16,05,28,8.90
2011,08,16,05,29,8.90
2011,08,16,05,30,8.90
2011,08,16,05,31,8.90
2011,08,16,05,32,8.90
2011,08,16,05,33,8.90
2011,08,16,05,34,8.90
2011,08,16,05,35,8.90
2011,08,16,05,36,8.90
2011,08,16,05,37,8.90
2011,08,16,05,38,8.90
2011,08,16,05,39,8.90
2011,08,16,05,40,8.90
2011,08,16,05,41,8.80
2011,08,16,05,42,8.80
2011,08,16,05,43,8.80
2011,08,16,05,44,8.80
2011,08,16,05,45,8.80
2011,08,16,05,46,8.70
2011,08,16,05,47,8.70
2011,08,16,05,48,8.70
2011,08,16,05,49,8.60
2011,08,16,05,50,8.60
2011,08,16,05,51,8.60
2011,08,16,05,52,8.60
2011,08,16,05,53,8.60
2011,08,16,05,54,8.50
2011,08,16,05,55,8.50
2011,08,16,05,56,8.50
2011,08,16,05,57,8.50
2011,08,16,05,58,8.40
2011,08,16,05,59,8.40
2011,08,16,06,00,8.40
2011,08,16,06,01,8.40
2011,08,16,06,02,8.40
2011,08,16,06,03,8.40
2011,08,16,06,04,8.30
2011,08,16,06,05,8.30
2011,08,16,06,06,8.30
2011,08,16,06,07,8.30
2011,08,16,06,08,8.30
2011,08,16,06,09,8.20
2011,08,16,06,10,8.20
2011,08,16,06,11,8.20
2011,08,16,06,12,8.20
2011,08,16,06,13,8.20
2011,08,16,06,14,8.20
2011,08,16,06,15,8.20
2011,08,16,06,16,8.20
2011,08,16,06,17,8.20
2011,08,16,06,18,8.20
2011,08,16,06,19,8.20
2011,08,16,06,20,8.20
2011,08,16,06,21,8.20
2011,08,16,06,22,8.20
2011,08,16,06,23,8.20
2011,08,16,06,24,8.20
2011,08,16,06,25,8.20
2011,08,16,06,26,8.20
2011,08,16,06,27,8.20
2011,08,16,06,28,8.20
2011,08,16,06,29,8.20
2011,08,16,06,30,8.20
2011,08,16,06,31,8.20
2011,08,16,06,32,8.20
2011,08,16,06,33,8.20
2011,08,16,06,34,8.20
2011,08,16,06,35,8.20
2011,08,16,06,36,8.10
2011,08,16,06,37,8.10
2011,08,16,06,38,8.10
2011,08,16,06,39,8.10
2011,08,16,06,40,8.10
2011,08,16,06,41,8.10
2011,08,16,06,42,8.10
2011,08,16,06,43,8.10
2011,08,16,06,44,8.10
2011,08,16,06,45,8.20
2011,08,16,06,46,8.20
2011,08,16,06,47,8.20
2011,08,16,06,48,8.20
2011,08,16,06,49,8.20
2011,08,16,06,50,8.20
2011,08,16,06,51,8.20
2011,08,16,06,52,8.20
2011,08,16,06,53,8.20
2011,08,16,06,54,8.20
2011,08,16,06,55,8.20
2011,08,16,06,56,8.20
2011,08,16,06,57,8.20
2011,08,16,06,58,8.20
2011,08,16,06,59,8.30
2011,08,16,07,00,8.30
2011,08,16,07,01,8.30
2011,08,16,07,02,8.30
2011,08,16,07,03,8.30
2011,08,16,07,04,8.30
2011,08,16,07,05,8.30
2011,08,16,07,06,8.40
2011,08,16,07,07,8.40
2011,08,16,07,08,8.50
2011,08,16,07,09,8.50
2011,08,16,07,10,8.60
2011,08,16,07,11,8.60
2011,08,16,07,12,8.70
2011,08,16,07,13,8.70
2011,08,16,07,14,8.70
2011,08,16,07,15,8.80
2011,08,16,07,16,8.80
2011,08,16,07,17,8.80
2011,08,16,07,18,8.80
2011,08,16,07,19,8.80
2011,08,16,07,20,8.90
2011,08,16,07,21,8.90
2011,08,16,07,22,8.90
2011,08,16,07,23,9.00
2011,08,16,07,24,9.00
2011,08,16,07,25,9.00
2011,08,16,07,26,9.10
2011,08,16,07,27,9.10
2011,08,16,07,28,9.20
2011,08,16,07,29,9.20
2011,08,16,07,30,9.20
2011,08,16,07,31,9.20
2011,08,16,07,32,9.30
2011,08,16,07,33,9.30
2011,08,16,07,34,9.30
2011,08,16,07,35,9.30
2011,08,16,07,36,9.30
2011,08,16,07,37,9.30
2011,08,16,07,38,9.30
2011,08,16,07,39,9.40
2011,08,16,07,40,9.40
2011,08,16,07,41,9.40
2011,08,16,07,42,9.50
2011,08,16,07,43,9.50
2011,08,16,07,44,9.60
2011,08,16,07,45,9.60
2011,08,16,07,46,9.60
2011,08,16,07,47,9.60
2011,08,16,07,48,9.70
2011,08,16,07,49,9.70
2011,08,16,07,50,9.70
2011,08,16,07,51,9.80
2011,08,16,07,52,9.80
2011,08,16,07,53,9.80
2011,08,16,07,54,9.90
2011,08,16,07,55,9.90
2011,08,16,07,56,10.00
2011,08,16,07,57,10.00
2011,08,16,07,58,10.10
2011,08,16,07,59,10.10
2011,08,16,08,00,10.10
2011,08,16,08,01,10.20
2011,08,16,08,02,10.20
2011,08,16,08,03,10.30
2011,08,16,08,04,10.30
2011,08,16,08,05,10.40
2011,08,16,08,06,10.40
2011,08,16,08,07,10.50
2011,08,16,08,08,10.60
2011,08,16,08,09,10.70
2011,08,16,08,10,10.80
2011,08,16,08,11,10.90
2011,08,16,08,12,11.10
2011,08,16,08,13,11.20
2011,08,16,08,14,11.30
2011,08,16,08,15,11.50
2011,08,16,08,16,11.60
2011,08,16,08,17,11.70
2011,08,16,08,18,11.80
2011,08,16,08,19,12.00
2011,08,16,08,20,12.10
2011,08,16,08,21,12.20
2011,08,16,08,22,12.20
2011,08,16,08,23,12.30
2011,08,16,08,24,12.40
2011,08,16,08,25,12.50
2011,08,16,08,26,12.60
2011,08,16,08,27,12.70
2011,08,16,08,28,12.80
2011,08,16,08,29,12.90
2011,08,16,08,30,13.00
2011,08,16,08,31,13.10
2011,08,16,08,32,13.10
2011,08,16,08,33,13.20
2011,08,16,08,34,13.30
2011,08,16,08,35,13.40
2011,08,16,08,36,13.50
2011,08,16,08,37,13.60
2011,08,16,08,38,13.70
2011,08,16,08,39,13.80
2011,08,16,08,40,13.80
2011,08,16,08,41,13.90
2011,08,16,08,42,14.00
2011,08,16,08,43,14.10
2011,08,16,08,44,14.20
2011,08,16,08,45,14.40
2011,08,16,08,46,14.50
2011,08,16,08,47,14.60
2011,08,16,08,48,14.70
2011,08,16,08,49,14.90
2011,08,16,08,50,15.00
2011,08,16,08,51,15.10
2011,08,16,08,52,15.20
2011,08,16,08,53,15.20
2011,08,16,08,54,15.20
2011,08,16,08,55,15.30
2011,08,16,08,56,15.30
2011,08,16,08,57,15.40
2011,08,16,08,58,15.40
2011,08,16,08,59,15.50
2011,08,16,09,00,15.60
2011,08,16,09,01,15.60
2011,08,16,09,02,15.70
2011,08,16,09,03,15.80
2011,08,16,09,04,15.90
2011,08,16,09,05,16.00
2011,08,16,09,06,16.00
2011,08,16,09,07,16.10
2011,08,16,09,08,16.10
2011,08,16,09,09,16.20
2011,08,16,09,10,16.30
2011,08,16,09,11,16.30
2011,08,16,09,12,16.30
2011,08,16,09,13,16.40
2011,08,16,09,14,16.40
2011,08,16,09,15,16.50
2011,08,16,09,16,16.50
2011,08,16,09,17,16.60
2011,08,16,09,18,16.60
2011,08,16,09,19,16.60
2011,08,16,09,20,16.70
2011,08,16,09,21,16.70
2011,08,16,09,22,16.80
2011,08,16,09,23,16.80
2011,08,16,09,24,16.90
2011,08,16,09,25,16.90
2011,08,16,09,26,17.00
2011,08,16,09,27,17.00
2011,08,16,09,28,17.10
2011,08,16,09,29,17.10
2011,08,16,09,30,17.20
2011,08,16,09,31,17.20
2011,08,16,09,32,17.20
2011,08,16,09,33,17.30
2011,08,16,09,34,17.30
2011,08,16,09,35,17.40
2011,08,16,09,36,17.50
2011,08,16,09,37,17.60
2011,08,16,09,38,17.70
2011,08,16,09,39,17.70
2011,08,16,09,40,17.70
2011,08,16,09,41,17.70
2011,08,16,09,42,17.70
2011,08,16,09,43,17.80
2011,08,16,09,44,17.80
2011,08,16,09,45,17.80
2011,08,16,09,46,17.80
2011,08,16,09,47,17.80
2011,08,16,09,48,17.70
2011,08,16,09,49,17.60
2011,08,16,09,50,17.60
2011,08,16,09,51,17.50
2011,08,16,09,52,17.50
2011,08,16,09,53,17.50
2011,08,16,09,54,17.50
2011,08,16,09,55,17.50
2011,08,16,09,56,17.60
2011,08,16,09,57,17.60
2011,08,16,09,58,17.60
2011,08,16,09,59,17.70
2011,08,16,10,00,17.60
2011,08,16,10,01,17.60
2011,08,16,10,02,17.70
2011,08,16,10,03,17.70
2011,08,16,10,04,17.70
2011,08,16,10,05,17.70
2011,08,16,10,06,17.70
2011,08,16,10,07,17.70
2011,08,16,10,08,17.80
2011,08,16,10,09,17.90
2011,08,16,10,10,18.00
2011,08,16,10,11,18.10
2011,08,16,10,12,18.20
2011,08,16,10,13,18.20
2011,08,16,10,14,18.20
2011,08,16,10,15,18.20
2011,08,16,10,16,18.20
2011,08,16,10,17,18.20
2011,08,16,10,18,18.20
2011,08,16,10,19,18.20
2011,08,16,10,20,18.30
2011,08,16,10,21,18.30
2011,08,16,10,22,18.20
2011,08,16,10,23,18.20
2011,08,16,10,24,18.20
2011,08,16,10,25,18.20
2011,08,16,10,26,18.10
2011,08,16,10,27,18.10
2011,08,16,10,28,18.10
2011,08,16,10,29,18.20
2011,08,16,10,30,18.30
2011,08,16,10,31,18.50
2011,08,16,10,32,18.60
2011,08,16,10,33,18.70
2011,08,16,10,34,18.70
2011,08,16,10,35,18.70
2011,08,16,10,36,18.70
2011,08,16,10,37,18.70
2011,08,16,10,38,18.70
2011,08,16,10,39,18.70
2011,08,16,10,40,18.70
2011,08,16,10,41,18.70
2011,08,16,10,42,18.80
2011,08,16,10,43,18.80
2011,08,16,10,44,18.90
2011,08,16,10,45,18.90
2011,08,16,10,46,18.90
2011,08,16,10,47,19.00
2011,08,16,10,48,19.00
2011,08,16,10,49,19.10
2011,08,16,10,50,19.10
2011,08,16,10,51,19.10
2011,08,16,10,52,19.10
2011,08,16,10,53,19.10
2011,08,16,10,54,19.10
2011,08,16,10,55,19.10
2011,08,16,10,56,19.10
2011,08,16,10,57,19.20
2011,08,16,10,58,19.20
2011,08,16,10,59,19.20
2011,08,16,11,00,19.30
2011,08,16,11,01,19.40
2011,08,16,11,02,19.40
2011,08,16,11,03,19.50
2011,08,16,11,04,19.60
2011,08,16,11,05,19.60
2011,08,16,11,06,19.70
2011,08,16,11,07,19.80
2011,08,16,11,08,19.90
2011,08,16,11,09,20.00
2011,08,16,11,10,20.00
2011,08,16,11,11,20.10
2011,08,16,11,12,20.10
2011,08,16,11,13,20.10
2011,08,16,11,14,20.00
2011,08,16,11,15,19.80
2011,08,16,11,16,19.70
2011,08,16,11,17,19.70
2011,08,16,11,18,19.70
2011,08,16,11,19,19.70
2011,08,16,11,20,19.70
2011,08,16,11,21,19.70
2011,08,16,11,22,19.70
2011,08,16,11,23,19.60
2011,08,16,11,24,19.60
2011,08,16,11,25,19.70
2011,08,16,11,26,19.80
2011,08,16,11,27,19.90
2011,08,16,11,28,20.00
2011,08,16,11,29,20.00
2011,08,16,11,30,20.00
2011,08,16,11,31,20.00
2011,08,16,11,32,20.00
2011,08,16,11,33,19.90
2011,08,16,11,34,19.90
2011,08,16,11,35,20.00
2011,08,16,11,36,20.00
2011,08,16,11,37,20.00
2011,08,16,11,38,20.00
2011,08,16,11,39,19.90
2011,08,16,11,40,19.90
2011,08,16,11,41,19.80
2011,08,16,11,42,19.80
2011,08,16,11,43,19.80
2011,08,16,11,44,19.80
2011,08,16,11,45,19.80
2011,08,16,11,46,19.90
2011,08,16,11,47,19.90
2011,08,16,11,48,20.00
2011,08,16,11,49,20.00
2011,08,16,11,50,20.00
2011,08,16,11,51,20.00
2011,08,16,11,52,20.00
2011,08,16,11,53,20.00
2011,08,16,11,54,20.00
2011,08,16,11,55,20.10
2011,08,16,11,56,20.20
2011,08,16,11,57,20.30
2011,08,16,11,58,20.30
2011,08,16,11,59,20.20
2011,08,16,12,00,20.20
2011,08,16,12,01,20.20
2011,08,16,12,02,20.20
2011,08,16,12,03,20.20
2011,08,16,12,04,20.30
2011,08,16,12,05,20.30
2011,08,16,12,06,20.30
2011,08,16,12,07,20.20
2011,08,16,12,08,20.20
2011,08,16,12,09,20.30
2011,08,16,12,10,20.30
2011,08,16,12,11,20.30
2011,08,16,12,12,20.30
2011,08,16,12,13,20.30
2011,08,16,12,14,20.30
2011,08,16,12,15,20.30
2011,08,16,12,16,20.40
2011,08,16,12,17,20.50
2011,08,16,12,18,20.60
2011,08,16,12,19,20.60
2011,08,16,12,20,20.60
2011,08,16,12,21,20.60
2011,08,16,12,22,20.70
2011,08,16,12,23,20.80
2011,08,16,12,24,20.80
2011,08,16,12,25,20.80
2011,08,16,12,26,20.70
2011,08,16,12,27,20.60
2011,08,16,12,28,20.60
2011,08,16,12,29,20.50
2011,08,16,12,30,20.60
2011,08,16,12,31,20.60
2011,08,16,12,32,20.60
2011,08,16,12,33,20.60
2011,08,16,12,34,20.70
2011,08,16,12,35,20.80
2011,08,16,12,36,20.90
2011,08,16,12,37,21.00
2011,08,16,12,38,21.10
2011,08,16,12,39,21.10
2011,08,16,12,40,21.20
2011,08,16,12,41,21.20
2011,08,16,12,42,21.20
2011,08,16,12,43,21.20
2011,08,16,12,44,21.20
2011,08,16,12,45,21.20
2011,08,16,12,46,21.20
2011,08,16,12,47,21.20
2011,08,16,12,48,21.20
2011,08,16,12,49,21.30
2011,08,16,12,50,21.20
2011,08,16,12,51,21.00
2011,08,16,12,52,20.80
2011,08,16,12,53,20.80
2011,08,16,12,54,20.70
2011,08,16,12,55,20.70
2011,08,16,12,56,20.50
2011,08,16,12,57,20.50
2011,08,16,12,58,20.50
2011,08,16,12,59,20.60
2011,08,16,13,00,20.60
2011,08,16,13,01,20.70
2011,08,16,13,02,20.70
2011,08,16,13,03,20.70
2011,08,16,13,04,20.80
2011,08,16,13,05,20.90
2011,08,16,13,06,21.00
2011,08,16,13,07,21.10
2011,08,16,13,08,21.10
2011,08,16,13,09,21.20
2011,08,16,13,10,21.30
2011,08,16,13,11,21.30
2011,08,16,13,12,21.30
2011,08,16,13,13,21.40
2011,08,16,13,14,21.40
2011,08,16,13,15,21.40
2011,08,16,13,16,21.30
2011,08,16,13,17,21.10
2011,08,16,13,18,21.00
2011,08,16,13,19,20.80
2011,08,16,13,20,20.70
2011,08,16,13,21,20.70
2011,08,16,13,22,20.70
2011,08,16,13,23,20.70
2011,08,16,13,24,20.70
2011,08,16,13,25,20.70
2011,08,16,13,26,20.80
2011,08,16,13,27,20.70
2011,08,16,13,28,20.60
2011,08,16,13,29,20.60
2011,08,16,13,30,20.60
2011,08,16,13,31,20.70
2011,08,16,13,32,20.90
2011,08,16,13,33,21.00
2011,08,16,13,34,21.10
2011,08,16,13,35,21.20
2011,08,16,13,36,21.30
2011,08,16,13,37,21.40
2011,08,16,13,38,21.40
2011,08,16,13,39,21.30
2011,08,16,13,40,21.20
2011,08,16,13,41,21.10
2011,08,16,13,42,21.10
2011,08,16,13,43,20.90
2011,08,16,13,44,20.70
2011,08,16,13,45,20.40
2011,08,16,13,46,20.20
2011,08,16,13,47,20.10
2011,08,16,13,48,20.20
2011,08,16,13,49,20.30
2011,08,16,13,50,20.40
2011,08,16,13,51,20.40
2011,08,16,13,52,20.40
2011,08,16,13,53,20.30
2011,08,16,13,54,20.30
2011,08,16,13,55,20.30
2011,08,16,13,56,20.30
2011,08,16,13,57,20.30
2011,08,16,13,58,20.20
2011,08,16,13,59,20.20
2011,08,16,14,00,20.30
2011,08,16,14,01,20.40
2011,08,16,14,02,20.50
2011,08,16,14,03,20.60
2011,08,16,14,04,20.60
2011,08,16,14,05,20.70
2011,08,16,14,06,20.80
2011,08,16,14,07,20.80
2011,08,16,14,08,20.80
2011,08,16,14,09,20.80
2011,08,16,14,10,20.80
2011,08,16,14,11,20.70
2011,08,16,14,12,20.60
2011,08,16,14,13,20.70
2011,08,16,14,14,20.70
2011,08,16,14,15,20.80
2011,08,16,14,16,21.00
2011,08,16,14,17,21.10
2011,08,16,14,18,21.00
2011,08,16,14,19,21.00
2011,08,16,14,20,21.00
2011,08,16,14,21,20.90
2011,08,16,14,22,20.90
2011,08,16,14,23,20.90
2011,08,16,14,24,20.90
2011,08,16,14,25,21.00
2011,08,16,14,26,21.00
2011,08,16,14,27,21.10
2011,08,16,14,28,21.20
2011,08,16,14,29,21.30
2011,08,16,14,30,21.20
2011,08,16,14,31,21.20
2011,08,16,14,32,21.20
2011,08,16,14,33,21.20
2011,08,16,14,34,21.20
2011,08,16,14,35,21.10
2011,08,16,14,36,21.00
2011,08,16,14,37,20.90
2011,08,16,14,38,20.80
2011,08,16,14,39,20.80
2011,08,16,14,40,21.00
2011,08,16,14,41,21.10
2011,08,16,14,42,21.10
2011,08,16,14,43,21.00
2011,08,16,14,44,20.90
2011,08,16,14,45,20.90
2011,08,16,14,46,20.80
2011,08,16,14,47,20.80
2011,08,16,14,48,20.80
2011,08,16,14,49,20.90
2011,08,16,14,50,21.00
2011,08,16,14,51,21.00
2011,08,16,14,52,21.10
2011,08,16,14,53,21.10
2011,08,16,14,54,21.20
2011,08,16,14,55,21.20
2011,08,16,14,56,21.20
2011,08,16,14,57,21.30
2011,08,16,14,58,21.30
2011,08,16,14,59,21.30
2011,08,16,15,00,21.20
2011,08,16,15,01,21.10
2011,08,16,15,02,20.90
2011,08,16,15,03,20.80
2011,08,16,15,04,20.80
2011,08,16,15,05,20.70
2011,08,16,15,06,20.70
2011,08,16,15,07,20.70
2011,08,16,15,08,20.90
2011,08,16,15,09,21.00
2011,08,16,15,10,21.20
2011,08,16,15,11,21.30
2011,08,16,15,12,21.40
2011,08,16,15,13,21.50
2011,08,16,15,14,21.60
2011,08,16,15,15,21.60
2011,08,16,15,16,21.70
2011,08,16,15,17,21.70
2011,08,16,15,18,21.60
2011,08,16,15,19,21.60
2011,08,16,15,20,21.50
2011,08,16,15,21,21.40
2011,08,16,15,22,21.30
2011,08,16,15,23,21.10
2011,08,16,15,24,21.00
2011,08,16,15,25,21.00
2011,08,16,15,26,20.90
2011,08,16,15,27,20.90
2011,08,16,15,28,20.90
2011,08,16,15,29,20.80
2011,08,16,15,30,20.80
2011,08,16,15,31,20.80
2011,08,16,15,32,20.80
2011,08,16,15,33,20.80
2011,08,16,15,34,20.80
2011,08,16,15,35,20.80
2011,08,16,15,36,20.90
2011,08,16,15,37,20.90
2011,08,16,15,38,21.00
2011,08,16,15,39,21.10
2011,08,16,15,40,21.00
2011,08,16,15,41,21.10
2011,08,16,15,42,21.20
2011,08,16,15,43,21.30
2011,08,16,15,44,21.40
2011,08,16,15,45,21.50
2011,08,16,15,46,21.50
2011,08,16,15,47,21.50
2011,08,16,15,48,21.60
2011,08,16,15,49,21.60
2011,08,16,15,50,21.50
2011,08,16,15,51,21.50
2011,08,16,15,52,21.50
2011,08,16,15,53,21.50
2011,08,16,15,54,21.60
2011,08,16,15,55,21.60
2011,08,16,15,56,21.70
2011,08,16,15,57,21.70
2011,08,16,15,58,21.70
2011,08,16,15,59,21.70
2011,08,16,16,00,21.80
2011,08,16,16,01,21.80
2011,08,16,16,02,21.80
2011,08,16,16,03,21.80
2011,08,16,16,04,21.90
2011,08,16,16,05,22.10
2011,08,16,16,06,22.20
2011,08,16,16,07,22.30
2011,08,16,16,08,22.30
2011,08,16,16,09,22.20
2011,08,16,16,10,22.20
2011,08,16,16,11,22.10
2011,08,16,16,12,22.00
2011,08,16,16,13,21.90
2011,08,16,16,14,21.90
2011,08,16,16,15,22.00
2011,08,16,16,16,22.10
2011,08,16,16,17,22.20
2011,08,16,16,18,22.30
2011,08,16,16,19,22.40
2011,08,16,16,20,22.40
2011,08,16,16,21,22.30
2011,08,16,16,22,22.30
2011,08,16,16,23,22.30
2011,08,16,16,24,22.30
2011,08,16,16,25,22.20
2011,08,16,16,26,22.20
2011,08,16,16,27,22.20
2011,08,16,16,28,22.20
2011,08,16,16,29,22.20
2011,08,16,16,30,22.20
2011,08,16,16,31,22.10
2011,08,16,16,32,22.10
2011,08,16,16,33,22.10
2011,08,16,16,34,22.20
2011,08,16,16,35,22.20
2011,08,16,16,36,22.20
2011,08,16,16,37,22.20
2011,08,16,16,38,22.20
2011,08,16,16,39,22.30
2011,08,16,16,40,22.30
2011,08,16,16,41,22.30
2011,08,16,16,42,22.20
2011,08,16,16,43,22.20
2011,08,16,16,44,22.10
2011,08,16,16,45,22.00
2011,08,16,16,46,22.00
2011,08,16,16,47,22.00
2011,08,16,16,48,22.10
2011,08,16,16,49,22.10
2011,08,16,16,50,22.10
2011,08,16,16,51,22.10
2011,08,16,16,52,22.10
2011,08,16,16,53,22.00
2011,08,16,16,54,22.00
2011,08,16,16,55,21.90
2011,08,16,16,56,21.90
2011,08,16,16,57,22.00
2011,08,16,16,58,22.10
2011,08,16,16,59,22.10
2011,08,16,17,00,22.10
2011,08,16,17,01,22.10
2011,08,16,17,02,22.00
2011,08,16,17,03,22.00
2011,08,16,17,04,22.00
2011,08,16,17,05,21.90
2011,08,16,17,06,21.80
2011,08,16,17,07,21.80
2011,08,16,17,08,21.80
2011,08,16,17,09,21.80
2011,08,16,17,10,21.80
2011,08,16,17,11,21.80
2011,08,16,17,12,21.80
2011,08,16,17,13,21.80
2011,08,16,17,14,21.70
2011,08,16,17,15,21.70
2011,08,16,17,16,21.70
2011,08,16,17,17,21.70
2011,08,16,17,18,21.80
2011,08,16,17,19,21.80
2011,08,16,17,20,21.70
2011,08,16,17,21,21.70
2011,08,16,17,22,21.70
2011,08,16,17,23,21.70
2011,08,16,17,24,21.70
2011,08,16,17,25,21.80
2011,08,16,17,26,21.80
2011,08,16,17,27,21.80
2011,08,16,17,28,21.80
2011,08,16,17,29,21.80
2011,08,16,17,30,21.80
2011,08,16,17,31,21.80